.
WxDataArchive / Data Records for 2008-12-20
2008-12-19 December 2008 2008-12-21

Data Records for Saturday, 20 December 2008

Time	Temp	Chill	HIndex	Humid	Dewpt	 Wind 	HiWind	WindDir	Rain 	Barom 
-----	----	-----	------	-----	-----	------	------	-------	-----	----- 
00:00	25.1	25.1	25.1	88	22.1	0	0	---	0.00	30.080 
00:05	25.0	25.0	25.0	88	22.0	0	0	---	0.00	30.080 
00:10	24.8	24.8	24.8	88	21.8	0	0	---	0.00	30.082 
00:15	24.7	24.7	24.7	88	21.7	0	0	---	0.00	30.091 
00:20	24.5	24.5	24.5	87	21.2	0	0	---	0.00	30.096 
00:25	24.5	24.5	24.5	87	21.2	0	0	---	0.00	30.099 
00:30	24.4	24.4	24.4	87	21.1	0	0	---	0.00	30.097 
00:35	24.4	24.4	24.4	87	21.1	0	0	---	0.00	30.096 
00:40	24.4	24.4	24.4	87	21.1	0	0	---	0.00	30.091 
00:45	24.2	24.2	24.2	87	20.9	0	0	---	0.00	30.079 
00:50	24.2	24.2	24.2	88	21.2	0	0	---	0.00	30.074 
00:55	24.1	24.1	24.1	88	21.1	0	0	---	0.00	30.066 
01:00	24.1	24.1	24.1	88	21.1	0	0	---	0.00	30.064 
01:05	23.9	23.9	23.9	88	20.9	0	0	---	0.00	30.067 
01:10	23.9	23.9	23.9	88	20.9	0	0	---	0.00	30.066 
01:15	23.9	23.9	23.9	88	20.9	0	0	---	0.00	30.070 
01:20	23.9	23.9	23.9	88	20.9	0	0	---	0.00	30.074 
01:25	23.8	23.8	23.8	88	20.8	0	0	---	0.00	30.064 
01:30	23.8	23.8	23.8	88	20.8	0	0	---	0.00	30.063 
01:35	23.8	23.8	23.8	88	20.8	0	0	---	0.00	30.075 
01:40	23.6	23.6	23.6	87	20.3	0	0	---	0.00	30.075 
01:45	23.6	23.6	23.6	87	20.3	0	0	---	0.00	30.076 
01:50	23.6	23.6	23.6	87	20.3	0	0	---	0.00	30.080 
01:55	23.5	23.5	23.5	87	20.2	0	0	---	0.00	30.091 
02:00	23.5	23.5	23.5	87	20.2	0	0	---	0.00	30.088 
02:05	23.5	23.5	23.5	87	20.2	0	0	---	0.00	30.087 
02:10	23.5	23.5	23.5	87	20.2	0	0	---	0.00	30.093 
02:15	23.5	23.5	23.5	88	20.5	0	0	---	0.00	30.089 
02:20	23.5	23.5	23.5	88	20.5	0	0	---	0.00	30.088 
02:25	23.5	23.5	23.5	88	20.5	0	0	---	0.00	30.081 
02:30	23.5	23.5	23.5	88	20.5	0	0	---	0.00	30.087 
02:35	23.3	23.3	23.3	88	20.3	0	0	---	0.00	30.092 
02:40	23.3	23.3	23.3	88	20.3	0	0	---	0.00	30.095 
02:45	23.3	23.3	23.3	88	20.3	0	0	---	0.00	30.096 
02:50	23.3	23.3	23.3	88	20.3	0	0	---	0.00	30.097 
02:55	23.3	23.3	23.3	88	20.3	0	0	---	0.00	30.097 
03:00	23.2	23.2	23.2	88	20.2	0	0	---	0.00	30.097 
03:05	23.2	23.2	23.2	87	19.9	0	0	---	0.00	30.099 
03:10	23.2	23.2	23.2	87	19.9	0	0	---	0.00	30.102 
03:15	23.2	23.2	23.2	87	19.9	0	0	---	0.00	30.104 
03:20	23.2	23.2	23.2	87	19.9	0	0	---	0.00	30.101 
03:25	23.2	23.2	23.2	87	19.9	0	0	---	0.00	30.100 
03:30	23.0	23.0	23.0	87	19.7	0	0	---	0.00	30.100 
03:35	23.0	23.0	23.0	87	19.7	0	0	---	0.00	30.101 
03:40	23.0	23.0	23.0	87	19.7	0	0	---	0.00	30.101 
03:45	23.0	23.0	23.0	87	19.7	0	0	---	0.00	30.102 
03:50	23.0	23.0	23.0	87	19.7	0	0	---	0.00	30.101 
03:55	23.0	23.0	23.0	88	20.0	0	0	---	0.00	30.102 
04:00	23.0	23.0	23.0	88	20.0	0	0	---	0.00	30.105 
04:05	23.0	23.0	23.0	88	20.0	0	0	---	0.00	30.104 
04:10	23.0	23.0	23.0	88	20.0	0	0	---	0.00	30.107 
04:15	23.0	23.0	23.0	88	20.0	0	0	---	0.00	30.109 
04:20	23.0	23.0	23.0	88	20.0	0	0	---	0.00	30.104 
04:25	22.9	22.9	22.9	88	19.9	0	0	---	0.00	30.101 
04:30	22.9	22.9	22.9	88	19.9	0	0	---	0.00	30.101 
04:35	22.7	22.7	22.7	87	19.4	0	0	---	0.00	30.099 
04:40	22.5	22.5	22.5	87	19.2	0	0	---	0.00	30.097 
04:45	22.5	22.5	22.5	87	19.2	0	0	---	0.00	30.097 
04:50	22.5	22.5	22.5	87	19.2	0	0	---	0.00	30.097 
04:55	22.4	22.4	22.4	87	19.1	0	0	---	0.00	30.098 
05:00	22.2	22.2	22.2	87	18.9	0	0	---	0.00	30.098 
05:05	22.2	22.2	22.2	87	18.9	0	0	---	0.00	30.098 
05:10	22.1	22.1	22.1	86	18.6	0	0	---	0.00	30.100 
05:15	21.9	21.9	21.9	86	18.4	0	0	---	0.00	30.101 
05:20	21.8	21.8	21.8	86	18.3	0	0	---	0.00	30.102 
05:25	21.8	21.8	21.8	85	18.0	0	0	---	0.00	30.101 
05:30	21.6	21.6	21.6	85	17.8	0	0	---	0.00	30.097 
05:35	21.6	21.6	21.6	86	18.1	0	0	---	0.00	30.099 
05:40	21.4	21.4	21.4	86	17.9	0	0	---	0.00	30.100 
05:45	21.4	21.4	21.4	86	17.9	0	0	---	0.00	30.101 
05:50	21.3	21.3	21.3	86	17.8	0	0	---	0.00	30.102 
05:55	21.3	21.3	21.3	86	17.8	0	0	---	0.00	30.101 
06:00	21.1	21.1	21.1	85	17.3	0	0	---	0.00	30.098 
06:05	21.0	21.0	21.0	85	17.2	0	0	---	0.00	30.097 
06:10	21.0	21.0	21.0	85	17.2	0	0	---	0.00	30.101 
06:15	20.8	20.8	20.8	85	17.0	0	0	---	0.00	30.100 
06:20	20.6	20.6	20.6	85	16.8	0	0	---	0.00	30.095 
06:25	20.6	20.6	20.6	85	16.8	0	0	---	0.00	30.099 
06:30	20.6	20.6	20.6	85	16.8	0	0	---	0.00	30.101 
06:35	20.5	20.5	20.5	85	16.7	0	0	---	0.00	30.102 
06:40	20.5	20.5	20.5	85	16.7	0	0	---	0.00	30.103 
06:45	20.5	20.5	20.5	85	16.7	0	0	---	0.00	30.113 
06:50	20.5	20.5	20.5	85	16.7	0	0	---	0.00	30.107 
06:55	20.5	20.5	20.5	86	17.0	0	0	---	0.00	30.106 
07:00	20.3	20.3	20.3	85	16.5	0	0	---	0.00	30.102 
07:05	20.3	20.3	20.3	85	16.5	0	0	---	0.00	30.103 
07:10	20.3	20.3	20.3	86	16.8	0	0	---	0.00	30.103 
07:15	20.3	20.3	20.3	86	16.8	0	0	---	0.00	30.103 
07:20	20.3	20.3	20.3	86	16.8	0	0	---	0.00	30.104 
07:25	20.3	20.3	20.3	86	16.8	0	0	---	0.00	30.103 
07:30	20.3	20.3	20.3	86	16.8	0	0	---	0.00	30.104 
07:35	20.3	20.3	20.3	86	16.8	0	0	---	0.00	30.112 
07:40	20.3	20.3	20.3	86	16.8	0	0	---	0.00	30.114 
07:45	20.3	20.3	20.3	87	17.1	0	0	---	0.00	30.115 
07:50	20.3	20.3	20.3	87	17.1	0	0	---	0.00	30.112 
07:55	20.3	20.3	20.3	87	17.1	0	0	---	0.00	30.109 
08:00	20.5	20.5	20.5	87	17.3	0	0	---	0.00	30.110 
08:05	20.5	20.5	20.5	87	17.3	0	0	---	0.00	30.111 
08:10	20.5	20.5	20.5	87	17.3	0	0	---	0.00	30.106 
08:15	20.5	20.5	20.5	87	17.3	0	0	---	0.00	30.105 
08:20	20.5	20.5	20.5	87	17.3	0	0	---	0.00	30.106 
08:25	20.5	20.5	20.5	88	17.5	0	0	---	0.00	30.102 
08:30	20.6	20.6	20.6	88	17.6	0	0	---	0.00	30.107 
08:35	20.6	20.6	20.6	88	17.6	0	0	---	0.00	30.104 
08:40	20.6	20.6	20.6	88	17.6	0	0	---	0.00	30.106 
08:45	20.6	20.6	20.6	88	17.6	0	0	---	0.00	30.107 
08:50	20.8	20.8	20.8	88	17.8	0	0	---	0.00	30.111 
08:55	20.8	20.8	20.8	88	17.8	0	0	---	0.00	30.111 
09:00	20.8	20.8	20.8	88	17.8	0	0	---	0.00	30.102 
09:05	21.0	21.0	21.0	88	18.0	0	0	---	0.00	30.103 
09:10	21.0	21.0	21.0	88	18.0	0	0	---	0.00	30.105 
09:15	21.0	21.0	21.0	88	18.0	0	0	---	0.00	30.102 
09:20	21.1	21.1	21.1	89	18.4	0	0	---	0.00	30.099 
09:25	21.1	21.1	21.1	89	18.4	0	0	---	0.00	30.102 
09:30	21.3	21.3	21.3	89	18.6	0	0	---	0.00	30.105 
09:35	21.4	21.4	21.4	89	18.7	0	0	---	0.00	30.101 
09:40	21.4	21.4	21.4	89	18.7	0	0	---	0.00	30.100 
09:45	21.6	21.6	21.6	89	18.9	0	0	---	0.00	30.094 
09:50	21.6	21.6	21.6	89	18.9	0	0	---	0.00	30.091 
09:55	21.8	21.8	21.8	89	19.1	0	0	---	0.00	30.092 
10:00	21.8	21.8	21.8	89	19.1	0	0	---	0.00	30.097 
10:05	21.8	21.8	21.8	89	19.1	0	0	---	0.00	30.085 
10:10	21.8	21.8	21.8	89	19.1	0	0	---	0.00	30.082 
10:15	21.8	21.8	21.8	88	18.8	0	0	---	0.00	30.081 
10:20	21.6	21.6	21.6	87	18.3	0	0	---	0.00	30.082 
10:25	21.4	21.4	21.4	86	17.9	0	0	---	0.00	30.084 
10:30	21.6	21.6	21.6	86	18.1	0	0	---	0.00	30.087 
10:35	21.6	21.6	21.6	86	18.1	0	0	---	0.00	30.085 
10:40	21.6	21.6	21.6	86	18.1	0	0	---	0.00	30.088 
10:45	21.4	21.4	21.4	85	17.6	0	0	---	0.00	30.089 
10:50	21.4	21.4	21.4	85	17.6	0	0	---	0.00	30.088 
10:55	21.3	21.3	21.3	85	17.5	0	0	---	0.00	30.087 
11:00	21.4	21.4	21.4	85	17.6	0	0	---	0.00	30.087 
11:05	21.6	21.6	21.6	85	17.8	0	0	---	0.00	30.084 
11:10	21.6	21.6	21.6	84	17.5	0	0	---	0.00	30.076 
11:15	21.8	21.8	21.8	84	17.7	0	0	---	0.00	30.075 
11:20	21.8	21.8	21.8	85	18.0	0	0	---	0.00	30.082 
11:25	21.6	21.6	21.6	84	17.5	0	0	---	0.00	30.080 
11:30	21.4	21.4	21.4	85	17.6	0	0	---	0.00	30.074 
11:35	21.4	21.4	21.4	85	17.6	0	0	---	0.00	30.071 
11:40	21.3	21.3	21.3	85	17.5	0	0	---	0.00	30.070 
11:45	21.3	21.3	21.3	85	17.5	0	0	---	0.00	30.060 
11:50	21.3	21.3	21.3	85	17.5	0	0	---	0.00	30.058 
11:55	21.1	21.1	21.1	85	17.3	0	0	---	0.00	30.058 
12:00	21.1	21.1	21.1	85	17.3	0	0	---	0.00	30.055 
12:05	21.0	21.0	21.0	85	17.2	0	0	---	0.00	30.055 
12:10	21.0	21.0	21.0	85	17.2	0	0	---	0.00	30.048 
12:15	20.8	20.8	20.8	86	17.3	0	0	---	0.00	30.037 
12:20	21.0	21.0	21.0	86	17.5	0	0	---	0.00	30.031 
12:25	21.0	21.0	21.0	86	17.5	0	0	---	0.00	30.030 
12:30	21.1	21.1	21.1	86	17.6	0	0	---	0.00	30.025 
12:35	21.3	21.3	21.3	87	18.0	0	0	---	0.00	30.025 
12:40	21.3	21.3	21.3	87	18.0	0	0	---	0.00	30.023 
12:45	21.4	21.4	21.4	87	18.1	0	0	---	0.00	30.018 
12:50	21.6	21.6	21.6	87	18.3	0	0	---	0.00	30.012 
12:55	21.8	21.8	21.8	87	18.5	0	0	---	0.00	30.010 
13:00	21.8	21.8	21.8	87	18.5	0	0	---	0.00	30.006 
13:05	21.8	21.8	21.8	87	18.5	0	0	---	0.00	30.002 
13:10	21.8	21.8	21.8	87	18.5	0	0	---	0.00	29.994 
13:15	21.6	21.6	21.6	87	18.3	0	0	---	0.00	29.989 
13:20	21.6	21.6	21.6	87	18.3	0	0	---	0.00	29.984 
13:25	21.8	21.8	21.8	87	18.5	0	0	---	0.00	29.985 
13:30	21.8	21.8	21.8	88	18.8	0	0	---	0.00	29.976 
13:35	21.8	21.8	21.8	88	18.8	0	0	---	0.00	29.975 
13:40	21.9	21.9	21.9	88	18.9	0	0	---	0.00	29.976 
13:45	21.9	21.9	21.9	88	18.9	0	0	---	0.00	29.974 
13:50	21.9	21.9	21.9	88	18.9	0	0	---	0.00	29.974 
13:55	21.9	21.9	21.9	88	18.9	0	0	---	0.00	29.973 
14:00	22.1	22.1	22.1	88	19.1	0	0	---	0.00	29.964 
14:05	22.1	22.1	22.1	88	19.1	0	0	---	0.00	29.962 
14:10	22.1	22.1	22.1	88	19.1	0	0	---	0.00	29.959 
14:15	22.2	22.2	22.2	88	19.2	0	0	---	0.00	29.950 
14:20	22.2	22.2	22.2	88	19.2	0	0	---	0.00	29.946 
14:25	22.2	22.2	22.2	88	19.2	0	0	---	0.00	29.947 
14:30	22.2	22.2	22.2	88	19.2	0	0	---	0.00	29.947 
14:35	22.4	22.4	22.4	88	19.4	0	0	---	0.00	29.946 
14:40	22.4	22.4	22.4	88	19.4	0	0	---	0.00	29.941 
14:45	22.5	22.5	22.5	88	19.5	0	0	---	0.00	29.941 
14:50	22.5	22.5	22.5	88	19.5	0	0	---	0.00	29.938 
14:55	22.5	22.5	22.5	88	19.5	0	0	---	0.00	29.941 
15:00	22.5	22.5	22.5	88	19.5	0	0	---	0.00	29.941 
15:05	22.5	22.5	22.5	88	19.5	0	0	---	0.00	29.936 
15:10	22.4	22.4	22.4	88	19.4	0	0	---	0.00	29.932 
15:15	22.4	22.4	22.4	88	19.4	0	0	---	0.00	29.928 
15:20	22.4	22.4	22.4	88	19.4	0	0	---	0.00	29.927 
15:25	22.4	22.4	22.4	87	19.1	0	0	---	0.00	29.913 
15:30	22.4	22.4	22.4	88	19.4	0	0	---	0.00	29.901 
15:35	22.4	22.4	22.4	88	19.4	0	0	---	0.00	29.900 
15:40	22.4	22.4	22.4	88	19.4	0	0	---	0.00	29.905 
15:45	22.4	22.4	22.4	88	19.4	0	0	---	0.00	29.915 
15:50	22.4	22.4	22.4	88	19.4	0	0	---	0.00	29.914 
15:55	22.2	22.2	22.2	88	19.2	0	0	---	0.00	29.912 
16:00	22.2	22.2	22.2	88	19.2	0	0	---	0.00	29.900 
16:05	22.2	22.2	22.2	88	19.2	0	0	---	0.00	29.897 
16:10	22.2	22.2	22.2	88	19.2	0	0	---	0.00	29.898 
16:15	22.4	22.4	22.4	88	19.4	0	0	---	0.00	29.906 
16:20	22.4	22.4	22.4	88	19.4	0	0	---	0.00	29.909 
16:25	22.4	22.4	22.4	88	19.4	0	0	---	0.00	29.911 
16:30	22.4	22.4	22.4	88	19.4	0	0	---	0.00	29.906 
16:35	22.4	22.4	22.4	89	19.7	0	0	---	0.00	29.909 
16:40	22.4	22.4	22.4	89	19.7	0	0	---	0.00	29.902 
16:45	22.4	22.4	22.4	89	19.7	0	0	---	0.00	29.898 
16:50	22.4	22.4	22.4	89	19.7	0	0	---	0.00	29.899 
16:55	22.4	22.4	22.4	89	19.7	0	0	---	0.00	29.899 
17:00	22.4	22.4	22.4	89	19.7	0	0	---	0.00	29.892 
17:05	22.4	22.4	22.4	89	19.7	0	0	---	0.00	29.895 
17:10	22.4	22.4	22.4	89	19.7	0	0	---	0.00	29.895 
17:15	22.4	22.4	22.4	89	19.7	0	0	---	0.00	29.893 
17:20	22.4	22.4	22.4	89	19.7	0	0	---	0.00	29.885 
17:25	22.2	22.2	22.2	89	19.5	0	0	---	0.00	29.870 
17:30	22.2	22.2	22.2	89	19.5	0	0	---	0.00	29.858 
17:35	22.2	22.2	22.2	89	19.5	0	0	---	0.00	29.865 
17:40	22.2	22.2	22.2	89	19.5	0	0	---	0.00	29.867 
17:45	22.2	22.2	22.2	89	19.5	0	0	---	0.00	29.855 
17:50	22.2	22.2	22.2	89	19.5	0	0	---	0.00	29.853 
17:55	22.2	22.2	22.2	89	19.5	0	0	---	0.00	29.849 
18:00	22.2	22.2	22.2	90	19.7	0	0	---	0.00	29.847 
18:05	22.2	22.2	22.2	90	19.7	0	0	---	0.00	29.841 
18:10	22.2	22.2	22.2	90	19.7	0	0	---	0.00	29.850 
18:15	22.2	22.2	22.2	90	19.7	0	0	---	0.00	29.848 
18:20	22.4	22.4	22.4	90	19.9	0	0	---	0.00	29.851 
18:25	22.4	22.4	22.4	90	19.9	0	0	---	0.00	29.852 
18:30	22.4	22.4	22.4	90	19.9	0	0	---	0.00	29.854 
18:35	22.4	22.4	22.4	90	19.9	0	0	---	0.00	29.855 
18:40	22.4	22.4	22.4	90	19.9	0	0	---	0.00	29.856 
18:45	22.4	22.4	22.4	90	19.9	0	0	---	0.00	29.856 
18:50	22.5	22.5	22.5	90	20.0	0	0	---	0.00	29.853 
18:55	22.5	22.5	22.5	90	20.0	0	0	---	0.00	29.854 
19:00	22.5	22.5	22.5	90	20.0	0	0	---	0.00	29.853 
19:05	22.5	22.5	22.5	90	20.0	0	0	---	0.00	29.852 
19:10	22.7	22.7	22.7	90	20.2	0	0	---	0.00	29.848 
19:15	22.7	22.7	22.7	90	20.2	0	0	---	0.00	29.837 
19:20	22.7	22.7	22.7	90	20.2	0	0	---	0.00	29.836 
19:25	22.7	22.7	22.7	90	20.2	0	0	---	0.00	29.832 
19:30	22.7	22.7	22.7	90	20.2	0	0	---	0.00	29.821 
19:35	22.7	22.7	22.7	90	20.2	0	0	---	0.00	29.820 
19:40	22.7	22.7	22.7	90	20.2	0	0	---	0.00	29.818 
19:45	22.9	22.9	22.9	90	20.4	0	0	---	0.00	29.815 
19:50	22.9	22.9	22.9	90	20.4	0	0	---	0.00	29.807 
19:55	22.9	22.9	22.9	90	20.4	0	0	---	0.00	29.805 
20:00	22.9	22.9	22.9	90	20.4	0	0	---	0.00	29.804 
20:05	22.9	22.9	22.9	91	20.7	0	0	---	0.00	29.805 
20:10	22.9	22.9	22.9	91	20.7	0	0	---	0.00	29.803 
20:15	22.9	22.9	22.9	91	20.7	0	0	---	0.00	29.804 
20:20	22.9	22.9	22.9	91	20.7	0	0	---	0.00	29.797 
20:25	22.9	22.9	22.9	91	20.7	0	0	---	0.00	29.794 
20:30	22.9	22.9	22.9	91	20.7	0	0	---	0.00	29.789 
20:35	23.0	23.0	23.0	91	20.8	0	0	---	0.00	29.788 
20:40	23.0	23.0	23.0	91	20.8	0	0	---	0.00	29.786 
20:45	23.0	23.0	23.0	91	20.8	0	0	---	0.00	29.782 
20:50	23.0	23.0	23.0	91	20.8	0	0	---	0.00	29.777 
20:55	23.0	23.0	23.0	91	20.8	0	0	---	0.00	29.771 
21:00	23.2	23.2	23.2	91	21.0	0	0	---	0.00	29.766 
21:05	23.2	23.2	23.2	91	21.0	0	0	---	0.00	29.761 
21:10	23.2	23.2	23.2	91	21.0	0	0	---	0.00	29.760 
21:15	23.2	23.2	23.2	91	21.0	0	0	---	0.00	29.759 
21:20	23.3	23.3	23.3	91	21.1	0	0	---	0.00	29.764 
21:25	23.3	23.3	23.3	91	21.1	0	0	---	0.00	29.758 
21:30	23.3	23.3	23.3	91	21.1	0	0	---	0.00	29.756 
21:35	23.3	23.3	23.3	91	21.1	0	0	---	0.00	29.758 
21:40	23.5	23.5	23.5	91	21.3	0	0	---	0.00	29.755 
21:45	23.5	23.5	23.5	91	21.3	0	0	---	0.00	29.751 
21:50	23.5	23.5	23.5	91	21.3	0	0	---	0.00	29.750 
21:55	23.6	23.6	23.6	91	21.4	0	0	---	0.00	29.754 
22:00	23.6	23.6	23.6	91	21.4	0	0	---	0.00	29.755 
22:05	23.6	23.6	23.6	91	21.4	0	0	---	0.00	29.756 
22:10	23.6	23.6	23.6	92	21.6	0	0	---	0.00	29.754 
22:15	23.6	23.6	23.6	92	21.6	0	0	---	0.00	29.745 
22:20	23.6	23.6	23.6	91	21.4	0	0	---	0.00	29.746 
22:25	23.8	23.8	23.8	91	21.6	0	0	---	0.00	29.743 
22:30	23.8	23.8	23.8	92	21.8	0	0	---	0.00	29.743 
22:35	23.8	23.8	23.8	91	21.6	0	0	---	0.00	29.741 
22:40	23.8	23.8	23.8	91	21.6	0	0	---	0.00	29.741 
22:45	23.8	23.8	23.8	91	21.6	0	0	---	0.00	29.734 
22:50	23.8	23.8	23.8	91	21.6	0	0	---	0.00	29.732 
22:55	23.8	23.8	23.8	92	21.8	0	0	---	0.00	29.727 
23:00	23.8	23.8	23.8	92	21.8	0	0	---	0.00	29.732 
23:05	23.8	23.8	23.8	92	21.8	0	0	---	0.00	29.727 
23:10	23.8	23.8	23.8	92	21.8	0	0	---	0.00	29.728 
23:15	23.8	23.8	23.8	92	21.8	0	0	---	0.00	29.729 
23:20	23.8	23.8	23.8	92	21.8	0	0	---	0.00	29.731 
23:25	23.8	23.8	23.8	92	21.8	0	0	---	0.00	29.726 
23:30	23.8	23.8	23.8	92	21.8	0	0	---	0.00	29.726 
23:35	23.9	23.9	23.9	92	21.9	0	0	---	0.00	29.728 
23:40	23.9	23.9	23.9	92	21.9	0	0	---	0.00	29.728 
23:45	23.9	23.9	23.9	92	21.9	0	0	---	0.00	29.726 
23:50	23.9	23.9	23.9	92	21.9	0	0	---	0.00	29.725 
23:55	23.9	23.9	23.9	92	21.9	0	0	---	0.00	29.724 

CoCoRaHS
IN-AL-39
A2 Web Hosting
Creative Commons License
GoDaddy
search engine by freefind advanced

loaded 2018-11-16 00:24:05 • last modified 2010-11-18 10:43:29
Privacy PolicyDisclaimer
• wx.awcolley.com is powered by PmWiki v.2002016 •
• all content (unless otherwise noted) © 2018 A W Colley